Weather History for Mount Sterling, KY

Change the Weather History Date:

Wednesday, December 12, 2012

  Actual Average Record
Temperature  
Mean Temperature 31 °F -  
Max Temperature 41 °F 47 °F 41 °F (2012)
Min Temperature 21 °F 28 °F 14 °F (2013)
Degree Days  
Heating Degree Days 34    
Moisture  
Dew Point 25 °F    
Average Humidity 83    
Maximum Humidity 100    
Minimum Humidity 57    
Precipitation  
Precipitation 0.00 in - - ()
Sea Level Pressure  
Sea Level Pressure 30.35 in    
Wind  
Wind Speed 2 mph (East)    
Max Wind Speed 10 mph    
Max Gust Speed -    
Visibility 10 miles    
Events      
Averages and records for this station are not official NWS values.
T = Trace of Precipitation, MM = Missing Value Source: NWS Daily Summary

Daily Weather History Graph

Daily Weather History Graph

Search for Another Location

Airport:

Trip Planner

Search our weather history database for the weather conditions in past years. The results will help you decide how hot, cold, wet, or windy it might be!

Date:

Astronomy

Dec. 12, 2012 Rise Set
Actual Time 7:43 AM EST 5:16 PM EST
Civil Twilight 7:13 AM EST 5:46 PM EST
Nautical Twilight 6:40 AM EST 6:19 PM EST
Astronomical Twilight 6:08 AM EST 6:51 PM EST
Moon 6:46 AM EST (12/12) 4:52 PM EST (12/12)
Length of Visible Light 10h 32m
Length of Day
9h 33m
Waning Crescent, 1% of the Moon is Illuminated
Dec 12
Waning Crescent
Dec 13
New
Dec 20
First Quarter
Dec 28
Full
Jan 4
Last Quarter

Hourly Weather History & Observations

Time (EST) Temp. Windchill Dew Point Humidity Pressure Visibility Wind Dir Wind Speed Gust Speed Precip Events Conditions
12:15 AM 24.8 °F - 23.0 °F 93% 30.26 in 7.0 mi Calm Calm - N/A   Clear
12:35 AM 23.0 °F - 23.0 °F 100% 30.27 in 7.0 mi Calm Calm - N/A   Clear
12:55 AM 24.8 °F - 23.0 °F 93% 30.27 in 10.0 mi Calm Calm - N/A   Clear
1:15 AM 24.8 °F - 23.0 °F 93% 30.28 in 10.0 mi Calm Calm - N/A   Clear
1:35 AM 24.8 °F - 23.0 °F 93% 30.28 in 10.0 mi Calm Calm - N/A   Clear
1:55 AM 24.8 °F - 23.0 °F 93% 30.28 in 10.0 mi Calm Calm - N/A   Clear
2:15 AM 23.0 °F - 23.0 °F 100% 30.29 in 7.0 mi Calm Calm - N/A   Clear
2:35 AM 23.0 °F - 23.0 °F 100% 30.30 in 7.0 mi Calm Calm - N/A   Clear
2:55 AM 23.0 °F - 23.0 °F 100% 30.31 in 7.0 mi Calm Calm - N/A   Clear
3:15 AM 23.0 °F - 21.2 °F 93% 30.30 in 7.0 mi Calm Calm - N/A   Clear
3:35 AM 23.0 °F - 23.0 °F 100% 30.30 in 10.0 mi Calm Calm - N/A   Clear
3:55 AM 23.0 °F - 23.0 °F 100% 30.31 in 10.0 mi Calm Calm - N/A   Clear
4:15 AM 23.0 °F - 23.0 °F 100% 30.31 in 10.0 mi Calm Calm - N/A   Clear
4:35 AM 23.0 °F - 21.2 °F 93% 30.31 in 10.0 mi Calm Calm - N/A   Clear
4:55 AM 23.0 °F - 21.2 °F 93% 30.31 in 10.0 mi Calm Calm - N/A   Clear
5:15 AM 23.0 °F - 21.2 °F 93% 30.32 in 10.0 mi Calm Calm - N/A   Clear
5:35 AM 23.0 °F - 21.2 °F 93% 30.33 in 10.0 mi Calm Calm - N/A   Clear
5:55 AM 21.2 °F - 21.2 °F 100% 30.34 in 10.0 mi Calm Calm - N/A   Clear
6:15 AM 23.0 °F - 21.2 °F 93% 30.35 in 10.0 mi Calm Calm - N/A   Clear
6:35 AM 21.2 °F - 21.2 °F 100% 30.35 in 10.0 mi Calm Calm - N/A   Clear
6:55 AM 23.0 °F - 21.2 °F 93% 30.36 in 10.0 mi Calm Calm - N/A   Clear
7:15 AM 23.0 °F 18.4 °F 21.2 °F 93% 30.37 in 10.0 mi SE 3.5 mph - N/A   Clear
7:35 AM 21.2 °F 16.4 °F 19.4 °F 93% 30.37 in 10.0 mi SE 3.5 mph - N/A   Clear
7:55 AM 23.0 °F 18.4 °F 21.2 °F 93% 30.37 in 10.0 mi SE 3.5 mph - N/A   Clear
8:15 AM 21.2 °F - 19.4 °F 93% 30.38 in 10.0 mi Calm Calm - N/A   Clear
8:35 AM 23.0 °F - 21.2 °F 93% 30.38 in 10.0 mi Calm Calm - N/A   Clear
8:55 AM 26.6 °F 22.6 °F 24.8 °F 93% 30.38 in 7.0 mi SE 3.5 mph - N/A   Clear
9:15 AM 28.4 °F - 26.6 °F 93% 30.38 in 7.0 mi Calm Calm - N/A   Clear
9:35 AM 30.2 °F - 26.6 °F 86% 30.39 in 10.0 mi Calm Calm - N/A   Clear
9:55 AM 32.0 °F 27.5 °F 28.4 °F 87% 30.40 in 10.0 mi East 4.6 mph - N/A   Clear
10:15 AM 32.0 °F 27.5 °F 28.4 °F 87% 30.40 in 10.0 mi ESE 4.6 mph - N/A   Clear
10:35 AM 33.8 °F 28.6 °F 28.4 °F 81% 30.41 in 10.0 mi East 5.8 mph - N/A   Clear
10:55 AM 33.8 °F 27.7 °F 28.4 °F 81% 30.41 in 10.0 mi East 6.9 mph - N/A   Clear
11:15 AM 33.8 °F 26.4 °F 26.6 °F 75% 30.41 in 10.0 mi East 9.2 mph - N/A   Clear
11:35 AM 35.6 °F 29.9 °F 28.4 °F 75% 30.40 in 10.0 mi East 6.9 mph - N/A   Clear
11:55 AM 35.6 °F 29.9 °F 28.4 °F 75% 30.39 in 10.0 mi ESE 6.9 mph - N/A   Clear
12:15 PM 35.6 °F 28.0 °F 28.4 °F 75% 30.38 in 10.0 mi ESE 10.4 mph - N/A   Clear
12:35 PM 37.4 °F 32.8 °F 28.4 °F 70% 30.37 in 10.0 mi ESE 5.8 mph - N/A   Clear
12:55 PM 37.4 °F 33.8 °F 28.4 °F 70% 30.36 in 10.0 mi East 4.6 mph - N/A   Clear
1:15 PM 37.4 °F 32.1 °F 26.6 °F 65% 30.35 in 10.0 mi East 6.9 mph - N/A   Clear
1:35 PM 39.2 °F 35.0 °F 26.6 °F 61% 30.35 in 10.0 mi East 5.8 mph - N/A   Clear
1:55 PM 39.2 °F 35.0 °F 26.6 °F 61% 30.35 in 10.0 mi East 5.8 mph - N/A   Clear
2:15 PM 39.2 °F 33.6 °F 26.6 °F 61% 30.34 in 10.0 mi East 8.1 mph - N/A   Clear
2:55 PM 41.0 °F 37.1 °F 26.6 °F 57% 30.34 in 10.0 mi ENE 5.8 mph - N/A   Clear
3:15 PM 41.0 °F 36.4 °F 26.6 °F 57% 30.34 in 10.0 mi East 6.9 mph - N/A   Clear
3:35 PM 41.0 °F 38.0 °F 26.6 °F 57% 30.34 in 10.0 mi ENE 4.6 mph - N/A   Clear
3:55 PM 41.0 °F 37.1 °F 26.6 °F 57% 30.35 in 10.0 mi East 5.8 mph - N/A   Clear
4:15 PM 41.0 °F 36.4 °F 26.6 °F 57% 30.35 in 10.0 mi East 6.9 mph - N/A   Clear
4:35 PM 39.2 °F 35.9 °F 26.6 °F 61% 30.35 in 10.0 mi NE 4.6 mph - N/A   Clear
4:55 PM 37.4 °F 32.8 °F 26.6 °F 65% 30.35 in 10.0 mi ENE 5.8 mph - N/A   Clear
5:15 PM 37.4 °F 33.8 °F 26.6 °F 65% 30.36 in 10.0 mi East 4.6 mph - N/A   Clear
5:35 PM 35.6 °F 32.8 °F 26.6 °F 70% 30.36 in 10.0 mi East 3.5 mph - N/A   Clear
5:55 PM 35.6 °F - 26.6 °F 70% 30.36 in 10.0 mi Calm Calm - N/A   Clear
6:15 PM 35.6 °F 32.8 °F 26.6 °F 70% 30.37 in 10.0 mi East 3.5 mph - N/A   Clear
6:35 PM 32.0 °F 28.7 °F 26.6 °F 80% 30.37 in 10.0 mi East 3.5 mph - N/A   Clear
6:55 PM 32.0 °F 28.7 °F 26.6 °F 80% 30.37 in 10.0 mi East 3.5 mph - N/A   Clear
7:15 PM 32.0 °F 27.5 °F 26.6 °F 80% 30.37 in 10.0 mi NNE 4.6 mph - N/A   Clear
7:35 PM 32.0 °F 28.7 °F 26.6 °F 80% 30.38 in 10.0 mi NE 3.5 mph - N/A   Clear
7:55 PM 32.0 °F 28.7 °F 26.6 °F 80% 30.38 in 10.0 mi NE 3.5 mph - N/A   Clear
8:15 PM 32.0 °F 28.7 °F 26.6 °F 80% 30.38 in 10.0 mi ENE 3.5 mph - N/A   Clear
8:35 PM 30.2 °F 25.4 °F 26.6 °F 86% 30.38 in 10.0 mi ENE 4.6 mph - N/A   Clear
8:55 PM 32.0 °F 27.5 °F 26.6 °F 80% 30.38 in 10.0 mi ESE 4.6 mph - N/A   Clear
9:15 PM 28.4 °F 22.2 °F 26.6 °F 93% 30.38 in 10.0 mi East 5.8 mph - N/A   Clear
9:35 PM 32.0 °F 27.5 °F 26.6 °F 80% 30.37 in 10.0 mi East 4.6 mph - N/A   Clear
9:55 PM 30.2 °F 25.4 °F 26.6 °F 86% 30.37 in 10.0 mi ENE 4.6 mph - N/A   Clear
10:15 PM 28.4 °F 22.2 °F 24.8 °F 86% 30.36 in 10.0 mi East 5.8 mph - N/A   Clear
10:35 PM 30.2 °F 26.7 °F 26.6 °F 86% 30.36 in 10.0 mi East 3.5 mph - N/A   Clear
10:55 PM 26.6 °F 21.2 °F 26.6 °F 100% 30.36 in 10.0 mi ENE 4.6 mph - N/A   Clear
11:15 PM 28.4 °F 24.6 °F 24.8 °F 86% 30.36 in 10.0 mi ENE 3.5 mph - N/A   Clear
11:35 PM 26.6 °F - 24.8 °F 93% 30.37 in 10.0 mi Calm Calm - N/A   Clear
11:55 PM 28.4 °F 24.6 °F 24.8 °F 86% 30.37 in 10.0 mi NE 3.5 mph - N/A   Clear